Tracking 32427 objects as of 10-Dec-2025
HD Live streaming from Space Station
objects crossing your sky now

STARLINK-30756

Track STARLINK-30756 now!
10-day predictions
STARLINK-30756 is classified as:


NORAD ID: 58129
Int'l Code: 2023-162M
Perigee: 565.4 km
Apogee: 567.0 km
Inclination: 43.0 °
Period: 95.8 minutes
Semi major axis: 6937 km
RCS: Unknown
Launch date: October 22, 2023
Source: United States (US)
Launch site: AIR FORCE EASTERN TEST RANGE (AFETR)
Your satellite tracking list
Your tracking list is empty




NASA's NSSDC Master Catalog

Two Line Element Set (TLE):
1 58129U 23162M   25344.18271633  .00000345  00000-0  40580-4 0  9991
2 58129  43.0046 259.6178 0001187 257.9981 102.0729 15.02538828118834
Source of the keplerian elements: AFSPC